Cleveland, OH

9:19 AM EDT on April 26, 2018 (GMT -0400)
Cleveland-Hopkins International

Weather History for KCLE - November, 2014

Change the Weather History Date:

Sunday, November 30, 2014

  Actual Average Record
Temperature  
Mean Temperature 56 °F 38 °F  
Max Temperature 62 °F 44 °F 71 °F (1934)
Min Temperature 50 °F 32 °F 3 °F (1976)
Degree Days  
Heating Degree Days 9 27  
Month to date heating degree days 834 636  
Since 1 July heating degree days 1334 1095  
Cooling Degree Days 0 0  
Month to date cooling degree days 0 1  
Year to date cooling degree days 657 817  
Growing Degree Days 4 (Base 50)    
Moisture  
Dew Point 49 °F    
Average Humidity 72    
Maximum Humidity 77    
Minimum Humidity 66    
Precipitation  
Precipitation 0.31 in 0.11 in 1.47 in (2006)
Month to date precipitation 3.68 3.62  
Year to date precipitation 42.10 36.04  
Snow  
Snow 0.00 in 0.20 in - ()
Month to date snowfall 19.4 4.3  
Since 1 July snowfall 19.4 4.5  
Since 1 September snowfall 19.4 4.5  
Snow Depth 0.00 in    
Sea Level Pressure  
Sea Level Pressure 29.91 in    
Wind  
Wind Speed 14 mph (SW)    
Max Wind Speed 23 mph    
Max Gust Speed 35 mph    
Visibility 9 miles    
Events Rain    
T = Trace of Precipitation, MM = Missing Value Source: NWS Daily Summary

Daily Weather History Graph

Daily Weather History Graph

Search for Another Location

Airport or City:

Astronomy

Nov. 30, 2014 Rise Set
Actual Time 7:33 AM EST 4:58 PM EST
Civil Twilight 7:02 AM EST 5:29 PM EST
Nautical Twilight 6:27 AM EST 6:03 PM EST
Astronomical Twilight 5:54 AM EST 6:37 PM EST
Moon 1:32 PM EST (11/30) 12:57 AM EST (11/30)
Length of Visible Light 10h 27m
Length of Day
9h 25m
Waxing Gibbous, 64% of the Moon is Illuminated
Nov 30
Waxing Gibbous
Dec 6
Full
Dec 14
Last Quarter
Dec 21
New
Dec 28
First Quarter

Hourly Weather History & Observations

Time (EST) Temp. Dew Point Humidity Pressure Visibility Wind Dir Wind Speed Gust Speed Precip Events Conditions
12:51 AM 50.0 °F 39.9 °F 68% 29.85 in 10.0 mi South 12.7 mph - N/A   Overcast
1:51 AM 51.1 °F 41.0 °F 68% 29.85 in 10.0 mi South 12.7 mph - N/A   Overcast
2:51 AM 51.1 °F 42.1 °F 71% 29.86 in 10.0 mi South 11.5 mph - N/A   Overcast
3:51 AM 52.0 °F 43.0 °F 71% 29.86 in 10.0 mi South 12.7 mph - N/A   Overcast
4:51 AM 52.0 °F 44.1 °F 74% 29.86 in 10.0 mi South 12.7 mph - N/A   Overcast
5:51 AM 53.1 °F 45.0 °F 74% 29.86 in 10.0 mi South 12.7 mph - N/A   Overcast
6:51 AM 53.1 °F 45.0 °F 74% 29.86 in 10.0 mi South 12.7 mph - N/A   Overcast
7:51 AM 54.0 °F 46.0 °F 75% 29.86 in 10.0 mi South 10.4 mph - N/A   Overcast
8:51 AM 55.0 °F 46.9 °F 74% 29.87 in 10.0 mi South 13.8 mph - N/A   Overcast
9:51 AM 57.0 °F 48.9 °F 74% 29.88 in 10.0 mi SSW 16.1 mph 20.7 mph N/A   Overcast
10:51 AM 59.0 °F 50.0 °F 72% 29.88 in 10.0 mi SSW 16.1 mph 26.5 mph N/A   Overcast
11:51 AM 60.1 °F 51.1 °F 72% 29.86 in 10.0 mi SW 11.5 mph 23.0 mph N/A   Overcast
12:51 PM 62.1 °F 51.1 °F 67% 29.84 in 10.0 mi SW 20.7 mph 28.8 mph N/A   Overcast
1:51 PM 62.1 °F 51.1 °F 67% 29.85 in 10.0 mi SW 16.1 mph 27.6 mph N/A   Overcast
2:41 PM 61.0 °F 52.0 °F 72% 29.86 in 10.0 mi SW 19.6 mph 29.9 mph N/A   Overcast
2:51 PM 61.0 °F 52.0 °F 72% 29.86 in 10.0 mi SW 16.1 mph 25.3 mph N/A   Overcast
3:32 PM 61.0 °F 52.0 °F 72% 29.87 in 10.0 mi SSW 17.3 mph 25.3 mph N/A   Overcast
3:51 PM 61.0 °F 51.1 °F 70% 29.87 in 10.0 mi SSW 15.0 mph 24.2 mph N/A   Overcast
4:23 PM 60.1 °F 52.0 °F 75% 29.89 in 10.0 mi South 10.4 mph 23.0 mph N/A   Overcast
4:51 PM 60.1 °F 51.1 °F 72% 29.90 in 10.0 mi South 12.7 mph - N/A   Overcast
5:33 PM 60.1 °F 51.1 °F 72% 29.91 in 10.0 mi SSW 12.7 mph - N/A   Overcast
5:51 PM 60.1 °F 52.0 °F 75% 29.92 in 10.0 mi SSW 13.8 mph 21.9 mph 0.00 in Rain Light Rain
6:24 PM 60.1 °F 52.0 °F 75% 29.92 in 10.0 mi SSW 13.8 mph 23.0 mph 0.00 in Rain Light Rain
6:51 PM 60.1 °F 52.0 °F 75% 29.93 in 10.0 mi SSW 12.7 mph 20.7 mph 0.00 in Rain Light Rain
7:51 PM 60.1 °F 52.0 °F 75% 29.93 in 10.0 mi SSW 11.5 mph - 0.00 in Rain Light Rain
8:51 PM 61.0 °F 52.0 °F 72% 29.95 in 10.0 mi SSW 10.4 mph - 0.00 in   Overcast
9:51 PM 62.1 °F 52.0 °F 70% 29.97 in 10.0 mi West 16.1 mph 28.8 mph 0.00 in Rain Light Rain
9:58 PM 59.0 °F 53.1 °F 81% 29.98 in 5.0 mi WNW 18.4 mph 25.3 mph 0.00 in Rain Light Rain
10:04 PM 57.0 °F 53.1 °F 87% 29.98 in 1.8 mi West 17.3 mph 24.2 mph 0.11 in Rain Light Rain
10:16 PM 57.0 °F 54.0 °F 89% 29.99 in 2.0 mi West 16.1 mph - 0.23 in Rain Rain
10:34 PM 55.9 °F 54.0 °F 93% 29.99 in 5.0 mi WNW 12.7 mph - 0.31 in Rain Rain
10:40 PM 55.9 °F 54.0 °F 93% 30.00 in 6.0 mi WNW 13.8 mph - 0.31 in Rain Light Rain
10:51 PM 55.9 °F 53.1 °F 90% 30.01 in 8.0 mi West 11.5 mph - 0.31 in   Overcast
11:04 PM 55.0 °F 53.1 °F 93% 30.01 in 7.0 mi West 11.5 mph - N/A   Overcast
11:26 PM 54.0 °F 51.1 °F 90% 30.02 in 7.0 mi WNW 10.4 mph - N/A   Overcast
11:46 PM 51.8 °F 48.2 °F 88% 30.05 in 7.0 mi NW 12.7 mph - N/A   Overcast
11:51 PM 52.0 °F 48.9 °F 89% 30.05 in 7.0 mi WNW 12.7 mph - N/A   Overcast
11:55 PM 52.0 °F 48.0 °F 86% 30.06 in 7.0 mi WNW 11.5 mph - N/A   Overcast